Weather in Kestel'

Turkey     36°31′06″N   32°03′56″E
temp.,
°C
wind,
m/s
gust,
m/s
humid.,
%
clouds,
%
prec.,
mm/h
press.,
hPa
HPBL,
m
23 january, sat
sat2300:00+12ene116099 0.0 1026634
03:00+11ne2166100 0.0 1025150
06:00+11ne335724 0.0 1025137
09:00+11ene21612 0.0 1025193
12:00+13sse21540 0.0 1024499
15:00+13sw22600 0.0 1021750
18:00+13wsw226368 0.0 1022729
21:00+12nw016375 0.0 1022837
24 january, sun
sun2400:00+12ne226622 0.0 1022162
03:00+11ne337246 0.0 1022144
06:00+11ne446199 0.0 1021163
09:00+12ene335762 0.0 1022240
12:00+14sse22470 0.0 1022631
15:00+14s43510 0.0 1020951
18:00+14sse44570 0.0 1021893
21:00+14se33573 0.0 10221004
25 january, mon
mon2500:00+13se225423 0.0 1022801
03:00+12ne22480 0.0 1021135
06:00+12e335773 0.0 1021294
09:00+13ese354884 0.0 1021688
12:00+14se5752100 0.0 1020976
15:00+14se7865100 0.1 10191077
18:00+14se6769100 0.6 1019944
21:00+14ese5664100 0.0 1020932
26 january, tue
tue2600:00+14ese4662100 0.0 1020731
03:00+13e3572100 2.3 1021729
06:00+14e4567100 0.1 1020729
09:00+15se7862100 0.0 1020928
12:00+15se786295 0.0 1019948
15:00+14e4662100 0.0 1018692
18:00+15ese5663100 0.0 1017882
21:00+15ese4657100 0.1 1016877
27 january, wed
wed2700:00+16se4758100 0.0 1015821
03:00+15ese3755100 0.1 1013922
06:00+16se71152100 0.0 10101561
09:00+15e71058100 1.8 10081235
12:00+15se61259100 0.8 10041581
15:00+12sse121694100 19.2 10051009
18:00+15sw7967100 8.3 10051378
21:00+13ene2273100 22.1 1003367